星链-1189 (STARLINK-1189 )

导读 | 豆包AI

STARLINK-1189是美国太空探索技术公司Starlink星座的一颗卫星,该星座旨在搭建全球卫星互联网,为全球提供宽带网络服务。STARLINK-1189于2020年2月17日发射入轨,其运行后为星链星座的早期组网与服务覆盖提供了支撑,助力星链星座完成初期的通信网络布局。

Basic Information
目录编号:
45221
目录名称:
STARLINK-1189
国际标识:
2020-012AV
轨道中心:
EARTH
卫星名称:
星链-1189
卫星全名:
星链-1189 (STARLINK-1189 )
卫星状态:
已陨落 最后检测时间 2025-04-01
发射日期:
2020-02-17 UTC
国别 :
美国 (US)
星等 :
--
Orbit Information
数据来源 国际轨道数据
星历时间: 2025-04-01T13:48:03+0800
轨道信息已过期347天
半长轴: 6581.153km
偏心率: 0.000275
轨道倾角: 53.040°
近地点辐角 74.234°
升交点赤经 50.572°
平近点角 67.029°
近地点: 201.208km
远地点: 204.828km
周期: 88.555分钟
每日圈数: 16.261098
Detailed Information
固有亮度:
5
最大亮度:
2.5
卫星平台:
Starlink V1.0
覆盖范围:
全球
运营商:
太空探索技术公司
运营商所在国:
美国
制造商(研发单位):
太空探索技术公司
制造商所在国:
美国
使用方式:
暂无
Satellite Introduction
星链(Starlink)计划是由太空探索技术公司(SpaceX)提出的一个巨型低轨卫星互联网星座项目,计划在2019年至2024年间在太空搭建由约1.2万颗卫星组成的“星链”网络,其中1584颗将部署在地球上空550千米处的近地轨道,并从2020年开始工作。该卫星仍在工作。